7 * 24
多渠道服务支持
STARLINK-34866是美国SpaceX星链星座的卫星,于2025年8月14日发射入轨,属于Starlink Gen2组网卫星,旨在为全球提供低延迟、高速宽带互联网服务,尤其覆盖偏远、网络基础设施薄弱区域。该卫星运行在近地轨道,依托星链大规模星座部署,助力实现全球无缝网络覆盖,推动卫星互联网商业化应用落地。
美国
(US)
| 数据来源 | 国际轨道数据 |
| 星历时间: | 2026-09-12T10:18:34+0800 23小时前 查看轨道信息 |
| 半长轴: | 6843.646km |
| 偏心率: | 0.0002284 |
| 轨道倾角: | 97.285° |
| 近地点辐角 | 107.232° |
| 升交点赤经 | 124.181° |
| 平近点角 | 252.918° |
| 近地点: | 463.945km |
| 远地点: | 467.073km |
| 周期: | 93.906分钟 |
| 每日圈数: | 15.334565 |